Location: Unspecified
(33.6682°S, 0.0000°E)
Time: 15:53:38
(UTC+00:00)

Tiros 1 despin weight - Pass Details

Date: 19 June 2019
Orbit: 594 x 642 km, 48.2° (Epoch: 21 July)

Event Time Altitude Azimuth Distance (km) Brightness Sun altitude
Rises 10:59:10 0° 321° (NW) 2,902 ? 31.0°
Reaches altitude 10° 11:01:29 10° 326° (NW) 2,009 ? 31.2°
Maximum altitude 11:06:01 55° 43° (NE) 769 ? 31.4°
Drops below altitude 10° 11:10:38 10° 120° (ESE) 2,049 ? 31.6°
Sets 11:13:02 0° 124° (SE) 2,967 ? 31.8°
